RYR6RR EGSS-LEAM

Flight info

Callsign RYR6RR
Flight time N/A
Altitude 39000
Route NUGBO DCT GOGSI N621 SAM N63 LELNA DCT KORER DCT DESAB DCT NENEM N867 MAPAX DCT BANEV N10 CJN M143 RISPO
Aircraft B38M/M-SADE3FGILRWY/SB1

Departure

Time 2026-05-04 15:39
Airport London Stansted Airport (EGSS)

Arrival

Time N/A
Airport Almería Airport (LEAM)
Time Latitude Longitude Altitude Speed Heading
2026-05-04 15:21 51.89131 0.25565 360 ft 0 kts 43°
2026-05-04 15:30 51.89122 0.25552 359 ft 2 kts 43°
2026-05-04 15:30 51.89082 0.25508 354 ft 2 kts 356°
2026-05-04 15:31 51.89062 0.25520 357 ft 0 kts 322°
2026-05-04 15:33 51.89077 0.25499 352 ft 7 kts 314°
2026-05-04 15:34 51.89061 0.25100 349 ft 26 kts 223°
2026-05-04 15:34 51.88922 0.24890 352 ft 28 kts 223°
2026-05-04 15:34 51.88624 0.24442 356 ft 30 kts 222°
2026-05-04 15:35 51.88321 0.23988 349 ft 31 kts 223°
2026-05-04 15:35 51.88155 0.23740 347 ft 34 kts 224°
2026-05-04 15:35 51.87979 0.23477 345 ft 33 kts 223°
2026-05-04 15:36 51.87745 0.23124 345 ft 25 kts 227°
2026-05-04 15:36 51.87772 0.22960 346 ft 14 kts 311°
2026-05-04 15:36 51.87841 0.22839 346 ft 15 kts 311°
2026-05-04 15:37 51.87877 0.22774 348 ft 0 kts 312°
2026-05-04 15:37 51.87884 0.22763 353 ft 5 kts 312°
2026-05-04 15:37 51.87947 0.22672 348 ft 15 kts 343°
2026-05-04 15:37 51.87994 0.22717 352 ft 0 kts 43°
2026-05-04 15:38 51.88049 0.22801 341 ft 38 kts 43°
2026-05-04 15:38 51.88485 0.23450 344 ft 129 kts 43°
2026-05-04 15:38 51.89280 0.24650 760 ft 170 kts 41°
2026-05-04 15:39 51.90156 0.26014 1844 ft 183 kts 41°
2026-05-04 15:39 51.91107 0.27445 2874 ft 198 kts 41°
2026-05-04 15:39 51.93859 0.29768 4019 ft 247 kts
2026-05-04 15:40 51.95491 0.29065 4201 ft 246 kts 325°
2026-05-04 15:40 51.96509 0.26938 5305 ft 244 kts 292°
2026-05-04 15:40 51.96941 0.24202 6195 ft 259 kts 279°
2026-05-04 15:40 51.97290 0.21264 7208 ft 266 kts 279°
2026-05-04 15:41 51.97628 0.18344 8365 ft 269 kts 279°
2026-05-04 15:41 51.97974 0.15291 9486 ft 274 kts 279°
2026-05-04 15:41 51.98310 0.12271 10467 ft 281 kts 279°
2026-05-04 15:41 51.98665 0.09036 11117 ft 299 kts 279°
2026-05-04 15:42 51.98832 0.05634 11849 ft 310 kts 263°
2026-05-04 15:42 51.98420 0.02158 12743 ft 316 kts 258°
2026-05-04 15:42 51.97987 -0.01360 13697 ft 319 kts 258°
2026-05-04 15:42 51.97487 -0.04885 14531 ft 324 kts 249°
2026-05-04 15:43 51.96332 -0.08027 15345 ft 327 kts 227°
2026-05-04 15:43 51.94650 -0.10536 16132 ft 332 kts 221°
2026-05-04 15:43 51.92929 -0.12991 16915 ft 336 kts 221°
2026-05-04 15:43 51.91160 -0.15481 17724 ft 340 kts 220°
2026-05-04 15:44 51.90600 -0.16265 17954 ft 341 kts 220°
2026-05-04 15:44 51.89678 -0.17550 18342 ft 343 kts 220°
2026-05-04 15:44 51.87855 -0.20086 19011 ft 347 kts 220°
2026-05-04 15:44 51.86017 -0.22633 19695 ft 349 kts 220°
2026-05-04 15:45 51.84164 -0.25197 20363 ft 352 kts 220°
2026-05-04 15:45 51.82290 -0.27786 21002 ft 356 kts 220°
2026-05-04 15:45 51.80396 -0.30397 21650 ft 359 kts 220°
2026-05-04 15:45 51.78488 -0.33028 22315 ft 362 kts 220°
2026-05-04 15:46 51.76565 -0.35674 22955 ft 366 kts 220°
2026-05-04 15:46 51.74648 -0.38309 23610 ft 368 kts 220°
2026-05-04 15:46 51.72684 -0.41006 24140 ft 371 kts 220°
2026-05-04 15:46 51.70719 -0.43700 24677 ft 373 kts 220°
2026-05-04 15:47 51.68732 -0.46422 25214 ft 375 kts 220°
2026-05-04 15:47 51.66734 -0.49157 25656 ft 377 kts 220°
2026-05-04 15:47 51.65408 -0.50968 26000 ft 379 kts 220°
2026-05-04 15:47 51.62710 -0.54651 26672 ft 382 kts 220°
2026-05-04 15:48 51.61364 -0.56488 27003 ft 383 kts 219°
2026-05-04 15:48 51.59330 -0.59259 27483 ft 385 kts 219°
2026-05-04 15:48 51.55208 -0.64863 28399 ft 390 kts 219°
2026-05-04 15:49 51.52450 -0.68606 28990 ft 393 kts 219°
2026-05-04 15:49 51.50361 -0.71434 28775 ft 397 kts 222°
2026-05-04 15:49 51.48222 -0.74338 29566 ft 406 kts 219°
2026-05-04 15:49 51.47081 -0.75882 29888 ft 404 kts 219°
2026-05-04 15:50 51.45369 -0.78190 30408 ft 400 kts 219°
2026-05-04 15:50 51.43231 -0.81072 30743 ft 404 kts 219°
2026-05-04 15:51 51.41077 -0.83975 31049 ft 407 kts 219°
2026-05-04 15:51 51.38892 -0.86914 31375 ft 410 kts 219°
2026-05-04 15:51 51.36701 -0.89860 31686 ft 413 kts 219°
2026-05-04 15:51 51.34491 -0.92828 31992 ft 416 kts 219°
2026-05-04 15:52 51.32266 -0.95813 32297 ft 418 kts 218°
2026-05-04 15:52 51.30069 -0.98756 32603 ft 421 kts 218°
2026-05-04 15:52 51.27683 -1.01500 32877 ft 422 kts 211°
2026-05-04 15:52 51.25211 -1.04060 33147 ft 426 kts 212°
2026-05-04 15:53 51.22714 -1.06647 33448 ft 428 kts 212°
2026-05-04 15:53 51.20211 -1.09231 33746 ft 431 kts 211°
2026-05-04 15:53 51.17686 -1.11832 34078 ft 432 kts 211°
2026-05-04 15:53 51.15161 -1.14429 34398 ft 432 kts 211°
2026-05-04 15:54 51.12667 -1.16990 34694 ft 433 kts 211°
2026-05-04 15:54 51.10131 -1.19592 34999 ft 434 kts 211°
2026-05-04 15:54 51.07588 -1.22197 35299 ft 435 kts 211°
2026-05-04 15:54 51.05052 -1.24791 35592 ft 435 kts 212°
2026-05-04 15:55 51.02496 -1.27402 35873 ft 436 kts 212°
2026-05-04 15:55 50.99940 -1.30009 36169 ft 437 kts 212°
2026-05-04 15:55 50.97420 -1.32578 36447 ft 438 kts 212°
2026-05-04 15:55 50.94758 -1.35061 36696 ft 438 kts 204°
2026-05-04 15:56 50.92046 -1.37129 36981 ft 438 kts 206°
2026-05-04 15:56 50.89287 -1.39328 37222 ft 439 kts 206°
2026-05-04 15:56 50.86595 -1.41495 37473 ft 440 kts 206°
2026-05-04 15:56 50.83872 -1.43697 37740 ft 440 kts 206°
2026-05-04 15:57 50.81143 -1.45904 38009 ft 440 kts 206°
2026-05-04 15:57 50.78412 -1.48111 38252 ft 441 kts 207°
2026-05-04 15:57 50.75681 -1.50315 38492 ft 441 kts 207°
2026-05-04 15:57 50.72943 -1.52506 38715 ft 442 kts 206°
2026-05-04 15:58 50.70207 -1.54667 38894 ft 442 kts 206°
2026-05-04 15:58 50.67476 -1.56825 38988 ft 443 kts 206°
2026-05-04 15:58 50.61984 -1.61159 38992 ft 441 kts 206°
2026-05-04 15:59 50.56495 -1.65481 38997 ft 441 kts 206°
2026-05-04 15:59 50.51011 -1.69787 38998 ft 441 kts 206°
2026-05-04 16:00 50.45522 -1.74085 38996 ft 441 kts 206°
2026-05-04 16:00 50.40069 -1.78345 38998 ft 441 kts 206°
2026-05-04 16:01 50.34575 -1.82624 38995 ft 441 kts 206°
2026-05-04 16:01 50.29080 -1.86894 38996 ft 440 kts 206°
2026-05-04 16:02 50.23593 -1.91146 38995 ft 440 kts 206°
2026-05-04 16:03 50.15396 -1.97480 38996 ft 440 kts 206°
2026-05-04 16:03 50.09911 -2.01703 38991 ft 439 kts 206°
2026-05-04 16:04 50.04438 -2.05907 38991 ft 439 kts 206°
2026-05-04 16:04 49.95999 -2.10874 39001 ft 436 kts 187°
2026-05-04 16:05 49.89966 -2.12090 38999 ft 439 kts 187°
2026-05-04 16:06 49.80869 -2.13765 38993 ft 438 kts 187°
2026-05-04 16:07 49.69033 -2.15870 38994 ft 438 kts 187°
2026-05-04 16:08 49.56928 -2.18016 38992 ft 437 kts 187°
2026-05-04 16:09 49.41867 -2.20669 38990 ft 437 kts 187°
2026-05-04 16:10 49.32186 -2.22368 38991 ft 437 kts 187°
2026-05-04 16:11 49.20138 -2.24471 38993 ft 437 kts 187°
2026-05-04 16:12 49.02006 -2.27616 38986 ft 437 kts 187°
2026-05-04 16:13 48.89939 -2.29696 38983 ft 438 kts 187°
2026-05-04 16:14 48.77809 -2.31777 38988 ft 439 kts 187°
2026-05-04 16:16 48.62691 -2.34357 38991 ft 439 kts 187°
2026-05-04 16:17 48.47574 -2.36921 38986 ft 438 kts 187°
2026-05-04 16:18 48.35452 -2.38965 38981 ft 438 kts 187°
2026-05-04 16:19 48.20373 -2.41495 38971 ft 437 kts 187°
2026-05-04 16:20 48.05277 -2.44013 38963 ft 436 kts 187°
2026-05-04 16:22 47.90269 -2.46502 38965 ft 435 kts 187°
2026-05-04 16:23 47.72287 -2.49465 38965 ft 434 kts 187°
2026-05-04 16:25 47.54451 -2.53810 38964 ft 433 kts 191°
2026-05-04 16:26 47.33755 -2.59040 38962 ft 432 kts 191°
2026-05-04 16:28 47.18999 -2.62744 38963 ft 431 kts 191°
2026-05-04 16:29 46.98516 -2.67849 38961 ft 431 kts 191°
2026-05-04 16:31 46.83721 -2.71514 38955 ft 432 kts 191°
2026-05-04 16:32 46.65998 -2.75876 38954 ft 431 kts 191°
2026-05-04 16:33 46.54217 -2.78759 38958 ft 430 kts 191°
2026-05-04 16:34 46.45371 -2.80916 38953 ft 429 kts 191°
2026-05-04 16:35 46.27774 -2.85185 38959 ft 428 kts 191°
2026-05-04 16:36 46.18975 -2.87310 38959 ft 427 kts 191°
2026-05-04 16:37 46.10202 -2.89421 38962 ft 426 kts 191°
2026-05-04 16:38 45.98560 -2.92212 38961 ft 425 kts 191°
2026-05-04 16:39 45.83957 -2.95694 38964 ft 426 kts 190°
2026-05-04 16:40 45.72152 -2.96935 38963 ft 427 kts 187°
2026-05-04 16:41 45.57366 -2.98577 38967 ft 428 kts 187°
2026-05-04 16:43 45.42538 -3.00218 38970 ft 427 kts 187°
2026-05-04 16:43 45.33650 -3.01199 38977 ft 427 kts 187°
2026-05-04 16:45 45.15927 -3.03144 38966 ft 426 kts 187°
2026-05-04 16:46 45.01192 -3.04751 38972 ft 426 kts 187°
2026-05-04 16:47 44.89390 -3.06033 38970 ft 425 kts 187°
2026-05-04 16:48 44.77633 -3.07305 38976 ft 424 kts 187°
2026-05-04 16:49 44.65859 -3.08572 38976 ft 424 kts 187°
2026-05-04 16:50 44.54144 -3.09829 38977 ft 423 kts 188°
2026-05-04 16:51 44.45332 -3.10772 38983 ft 423 kts 188°
2026-05-04 16:52 44.33642 -3.12017 38980 ft 422 kts 188°
2026-05-04 16:53 44.24854 -3.12950 38981 ft 422 kts 188°
2026-05-04 16:54 44.13188 -3.14184 38984 ft 422 kts 188°
2026-05-04 16:55 44.01489 -3.13891 38996 ft 429 kts 174°
2026-05-04 16:55 43.95624 -3.12260 38991 ft 430 kts 173°
2026-05-04 16:56 43.80993 -3.08040 38993 ft 431 kts 173°
2026-05-04 16:57 43.72174 -3.05501 39000 ft 431 kts 173°
2026-05-04 16:58 43.61130 -3.02644 39004 ft 430 kts 175°
2026-05-04 17:00 43.43557 -2.98241 39018 ft 427 kts 175°
2026-05-04 17:01 43.28977 -2.94609 39011 ft 425 kts 175°
2026-05-04 17:02 43.17410 -2.91739 39008 ft 423 kts 175°
2026-05-04 17:03 43.08719 -2.89589 39008 ft 424 kts 175°
2026-05-04 17:03 43.00013 -2.87442 38996 ft 424 kts 175°
2026-05-04 17:04 42.88436 -2.84597 38988 ft 424 kts 175°
2026-05-04 17:05 42.76795 -2.81748 38997 ft 425 kts 175°
2026-05-04 17:06 42.68100 -2.79626 38993 ft 425 kts 175°
2026-05-04 17:07 42.60345 -2.77739 38998 ft 426 kts 175°
2026-05-04 17:07 42.53670 -2.76119 38981 ft 426 kts 175°
2026-05-04 17:08 42.44962 -2.74010 38983 ft 426 kts 175°
2026-05-04 17:09 42.39120 -2.72598 38988 ft 427 kts 175°
2026-05-04 17:09 42.33261 -2.71185 38978 ft 427 kts 175°
2026-05-04 17:10 42.21131 -2.70197 38963 ft 424 kts 181°
2026-05-04 17:11 42.18388 -2.69973 38968 ft 424 kts 181°
2026-05-04 17:12 42.17644 -2.69912 38970 ft 424 kts 181°
2026-05-04 17:13 42.17439 -2.69895 38974 ft 424 kts 181°